TimeMST,TemperatureF,Dew PointF,Humidity,Sea Level PressureIn,VisibilityMPH,Wind Direction,Wind SpeedMPH,Gust SpeedMPH,PrecipitationIn,Events,Conditions,WindDirDegrees,DateUTC
12:53 AM,39.9,6.1,25,29.81,10.0,West,18.4,-,N/A,,Clear,270,2013-12-13 07:53:00
1:53 AM,37.9,8.1,29,29.79,10.0,WSW,15.0,-,N/A,,Clear,250,2013-12-13 08:53:00
2:53 AM,37.9,9.0,30,29.76,10.0,West,16.1,-,N/A,,Clear,260,2013-12-13 09:53:00
3:53 AM,37.9,9.0,30,29.78,10.0,West,17.3,25.3,N/A,,Clear,280,2013-12-13 10:53:00
4:53 AM,37.9,9.0,30,29.82,10.0,NNW,10.4,-,N/A,,Clear,340,2013-12-13 11:53:00
5:53 AM,37.9,8.1,29,29.83,10.0,NW,10.4,-,N/A,,Clear,310,2013-12-13 12:53:00
6:53 AM,34.0,9.0,35,29.89,10.0,NW,9.2,-,N/A,,Clear,320,2013-12-13 13:53:00
7:53 AM,34.0,10.9,38,29.91,10.0,NNW,8.1,-,N/A,,Clear,330,2013-12-13 14:53:00
8:53 AM,35.1,10.9,37,29.93,10.0,NNW,16.1,27.6,N/A,,Clear,330,2013-12-13 15:53:00
9:53 AM,36.0,12.0,37,29.94,10.0,NNW,12.7,23.0,N/A,,Clear,340,2013-12-13 16:53:00
10:53 AM,37.9,12.9,36,29.90,10.0,NNW,18.4,25.3,N/A,,Clear,340,2013-12-13 17:53:00
11:53 AM,39.9,12.0,32,29.85,10.0,NNW,16.1,28.8,N/A,,Clear,330,2013-12-13 18:53:00
12:53 PM,37.9,12.0,35,29.86,10.0,NNW,17.3,27.6,N/A,,Clear,340,2013-12-13 19:53:00
1:53 PM,36.0,15.1,43,29.89,10.0,NNW,12.7,23.0,N/A,,Clear,340,2013-12-13 20:53:00
2:53 PM,35.1,15.1,44,29.92,10.0,NNW,15.0,24.2,N/A,,Clear,340,2013-12-13 21:53:00
3:53 PM,33.1,15.1,48,29.96,10.0,NNW,17.3,24.2,N/A,,Clear,330,2013-12-13 22:53:00
4:53 PM,32.0,15.1,50,30.00,10.0,NNW,16.1,20.7,N/A,,Clear,330,2013-12-13 23:53:00
5:53 PM,30.0,16.0,56,30.03,10.0,NNW,12.7,20.7,N/A,,Partly Cloudy,330,2013-12-14 00:53:00
6:53 PM,30.0,15.1,54,30.08,10.0,NNW,13.8,21.9,N/A,,Scattered Clouds,330,2013-12-14 01:53:00
7:53 PM,28.9,15.1,56,30.09,10.0,NNW,16.1,24.2,N/A,,Scattered Clouds,330,2013-12-14 02:53:00
8:53 PM,28.9,17.1,61,30.12,10.0,NNW,15.0,23.0,N/A,,Mostly Cloudy,330,2013-12-14 03:53:00
9:53 PM,28.9,17.1,61,30.13,10.0,NNW,13.8,21.9,N/A,,Overcast,340,2013-12-14 04:53:00
10:53 PM,27.0,17.1,66,30.16,10.0,North,10.4,-,N/A,,Partly Cloudy,360,2013-12-14 05:53:00
11:53 PM,25.0,16.0,69,30.17,10.0,North,10.4,-,N/A,,Clear,350,2013-12-14 06:53:00